CAPE
0 0 0 35 75 174 363 618 666 643 636 627 643 468 495 477 320 218 107 7 15 0 0 0 0 0 0 0 0 0 0 0 0 0 1 1 4 34 4 1 0 1 0
0 0 0 99 341 614 681 671 561 712 638 662 567 531 602 464 196 114 80 33 2 0 0 0 0 0 0 0 0 0 0 0 0 0 0 1 1 12 1 1 2 1 0
42 105 495 585 825 950 876 692 619 562 627 665 678 675 576 345 141 41 17 0 0 0 0 0 0 0 0 0 0 0 0 0 0 0 0 1 1 1 1 1 1 1 1
712 697 930 1094 1223 1111 878 718 672 760 727 657 689 713 582 352 86 0 0 0 0 0 0 0 0 0 0 0 0 6 2 0 0 0 1 1 1 1 0 0 0 0 0
1111 1114 1130 1218 1253 1264 1108 907 823 876 601 551 583 526 303 109 13 0 0 0 0 0 0 0 0 0 0 0 0 5 0 0 0 1 0 1 0 0 1 1 0 0 0
1347 1176 1034 1009 1081 1266 1246 989 752 638 470 425 311 153 54 31 0 0 0 0 0 0 0 0 0 0 0 0 2 3 0 0 0 0 0 0 1 0 0 1 0 0 0
1270 1173 968 833 655 511 355 568 659 316 240 134 0 0 0 0 0 1 14 4 0 0 0 0 0 0 0 0 1 1 0 0 0 0 0 0 0 0 0 1 0 0 0
876 1005 792 635 397 302 178 142 11 14 1 0 0 0 0 0 1 1 0 0 0 0 0 0 0 0 0 0 0 1 1 0 0 0 0 0 0 0 0 0 0 0 0
95 894 716 441 226 82 5 0 0 0 0 0 0 0 0 1 1 0 0 0 0 0 0 0 0 0 1 0 0 1 0 0 0 0 0 0 0 0 0 0 0 0 0
0 701 534 237 107 34 0 0 0 0 0 0 0 0 0 0 1 0 0 0 0 1 1 0 1 0 1 1 0 0 0 0 0 0 0 1 0 0 0 0 0 0 0
79 569 158 34 20 0 0 0 0 0 0 0 0 0 0 0 0 1 1 0 0 1 0 0 1 1 1 2 0 0 0 1 0 0 0 1 0 0 0 0 0 0 0
353 45 4 0 0 0 0 0 0 0 0 0 0 1 0 1 1 1 1 0 0 0 0 0 1 1 1 2 0 0 0 0 1 1 1 1 1 1 0 0 0 0 0
32 4 0 0 0 0 0 0 0 0 1 1 1 1 0 2 1 1 0 1 0 0 0 1 1 2 1 1 2 1 0 0 1 1 1 1 0 0 0 0 0 0 0
13 21 7 0 0 0 0 0 0 0 1 0 0 0 0 0 0 1 0 1 1 1 1 1 0 0 0 0 0 0 0 0 0 1 1 1 0 0 0 0 0 0 0
52 39 3 0 0 0 0 1 0 0 0 0 0 0 0 0 0 0 0 0 0 0 0 1 1 0 0 1 1 0 0 0 0 0 0 0 0 0 0 0 0 0 0
66 17 0 0 0 0 0 0 1 1 0 1 0 0 1 0 0 1 0 0 1 1 0 1 1 1 1 1 1 1 0 0 0 0 0 0 0 0 0 0 0 0 0
97 3 0 0 0 0 0 0 0 0 2 2 1 0 0 0 2 2 2 2 2 0 0 1 1 1 1 1 1 0 0 0 0 0 0 0 0 0 0 0 0 0 0
48 0 0 0 0 0 0 0 0 0 0 0 1 0 3 2 2 2 2 1 1 0 0 0 1 1 1 0 0 0 0 0 0 0 0 0 0 0 0 0 0 0 0
3 0 0 0 0 0 0 0 0 0 0 1 1 0 0 1 1 1 1 0 0 0 0 1 0 0 0 0 2 1 0 0 0 0 0 0 0 0 0 0 0 0 0
20 0 0 0 0 0 0 0 0 1 1 2 1 0 0 0 0 0 0 0 0 0 0 0 0 0 0 0 0 0 0 0 0 0 0 0 0 0 0 0 0 0 0
0 0 0 0 0 0 0 0 0 0 0 0 1 0 0 0 0 1 0 0 0 0 0 0 0 0 1 0 0 0 0 0 0 0 0 0 0 0 0 0 0 0 0
12 0 11 12 0 0 0 0 0 0 1 1 1 1 0 0 1 0 0 0 1 0 0 0 0 0 0 0 0 0 0 0 0 0 0 0 0 0 0 0 0 0 0
35 0 1 7 0 0 0 0 0 0 0 0 0 0 0 0 0 0 1 0 1 0 0 0 0 0 0 0 0 0 0 0 0 0 0 0 0 0 0 0 0 0 0
27 22 0 0 0 0 0 0 0 0 0 1 1 0 0 0 0 0 0 1 1 0 0 0 0 0 0 0 0 0 0 0 0 0 0 0 0 2 12 0 0 1 0
22 7 0 0 0 0 0 0 0 0 0 0 0 0 0 0 0 0 1 0 0 0 0 0 0 0 0 0 0 0 0 1 0 0 0 0 0 0 0 0 0 0 0
0 0 0 0 0 0 0 0 0 0 0 0 0 0 0 0 0 0 0 0 0 0 0 0 0 0 0 0 0 0 0 0 0 0 0 0 0 0 0 0 0 0 0
CIN
0 0 0 -726 -748 -644 -499 -417 -387 -346 -312 -278 -263 -296 -271 -261 -290 -304 -329 -387 -317 0 0 0 0 0 0 0 0 0 0 0 0 0 -1 0 -39 -11 -19 0 -1 0 0
0 0 0 -712 -587 -445 -409 -365 -349 -275 -256 -243 -255 -263 -197 -226 -312 -314 -278 -291 -188 0 0 0 0 0 0 0 0 0 0 0 0 0 -1 0 -2 -34 -42 0 -1 0 0
-754 -695 -530 -499 -400 -363 -375 -340 -294 -270 -226 -197 -207 -193 -185 -239 -274 -297 -246 0 0 0 0 0 0 0 0 0 0 0 0 0 0 0 0 -1 -1 0 0 0 0 0 0
-402 -406 -374 -337 -305 -341 -309 -287 -249 -193 -189 -194 -188 -159 -171 -218 -267 0 0 0 0 0 0 0 0 0 0 0 0 -86 -152 0 0 0 0 0 0 0 0 0 0 0 0
-266 -267 -297 -306 -295 -238 -187 -187 -174 -155 -223 -209 -193 -190 -249 -275 -306 0 0 0 0 0 0 0 0 0 0 0 0 -103 0 0 0 0 0 0 0 0 0 0 0 0 0
-205 -256 -301 -284 -233 -147 -97 -132 -182 -192 -222 -215 -242 -298 -309 -278 0 0 -3 -3 0 0 0 0 0 0 0 0 -159 -109 0 0 0 0 0 0 0 0 0 0 0 0 0
-155 -185 -201 -209 -226 -247 -315 -222 -185 -283 -304 -339 0 0 0 0 0 -50 -238 -153 0 0 0 0 0 0 0 0 0 0 0 0 0 0 0 0 0 0 0 0 0 0 0
-93 -119 -142 -168 -247 -287 -347 -381 -223 -486 -54 0 0 0 0 0 0 0 0 0 0 0 0 0 0 0 0 0 0 0 0 0 0 0 0 0 0 0 0 0 0 0 0
-238 -34 -88 -180 -277 -313 -179 0 0 0 0 0 0 0 0 0 0 0 0 0 0 0 0 0 0 0 0 0 0 0 0 0 0 0 0 0 0 0 0 0 0 0 0
0 -36 -73 -195 -267 -310 0 0 0 0 0 0 0 0 0 0 0 0 0 0 0 0 0 0 0 0 0 0 0 0 0 0 0 0 0 0 0 0 0 0 0 0 0
-159 -22 -113 -220 -195 0 0 0 0 0 0 0 0 0 0 0 0 0 0 0 0 0 0 0 0 0 0 0 0 0 0 0 0 0 0 0 0 0 0 0 0 0 0
-27 -43 -81 0 0 0 0 0 0 0 0 0 0 0 0 0 0 0 0 0 0 0 0 0 0 0 0 0 0 0 0 0 0 0 0 0 0 0 0 0 0 0 0
-6 -134 0 0 0 0 0 0 -12 0 0 0 0 0 0 0 0 0 0 0 0 0 0 0 0 0 0 0 0 0 0 0 0 0 0 0 0 0 0 0 0 0 0
-134 -266 -302 0 0 0 0 0 0 0 0 0 0 0 0 0 0 0 0 0 0 0 0 0 0 0 0 0 0 0 0 0 0 0 0 0 0 0 0 0 0 0 0
-184 -222 -65 0 0 0 0 0 0 0 0 0 0 0 0 0 0 0 0 0 0 0 0 0 0 0 0 0 0 0 0 0 0 0 0 0 0 0 0 0 0 0 0
-157 -224 0 0 0 0 0 0 0 0 0 0 0 0 0 0 0 0 0 0 0 0 0 0 0 0 0 0 0 0 0 0 0 0 0 0 0 0 0 0 0 0 0
-151 -218 0 0 0 0 0 0 0 0 0 0 0 0 0 0 0 0 0 0 0 0 0 0 0 0 0 0 0 0 0 0 0 0 0 0 0 0 0 0 0 0 0
-211 0 0 0 0 0 0 0 0 0 0 0 0 0 0 0 0 0 0 0 0 0 0 0 0 0 0 0 0 0 0 0 0 0 0 0 0 0 0 0 0 0 0
-280 0 0 0 0 0 0 0 0 0 0 0 0 0 0 0 0 0 0 0 0 0 0 0 0 0 0 -29 -62 -28 0 0 0 0 0 0 0 0 0 0 0 0 0
-190 0 0 0 0 0 0 0 0 0 0 0 0 0 0 0 0 0 0 0 0 0 0 0 0 0 0 0 0 -11 0 0 0 0 0 0 0 0 0 0 0 0 0
0 0 0 0 0 0 0 0 0 0 0 0 0 0 0 0 0 0 0 0 0 0 0 0 0 0 0 0 0 0 0 0 -43 -2 -2 0 0 0 0 0 0 0 0
-237 0 -199 -176 0 0 0 0 0 0 0 0 0 0 0 0 0 0 0 -11 -7 0 0 0 0 0 0 0 0 0 0 0 0 0 0 0 0 0 0 0 0 0 0
-206 -31 -40 -198 0 0 0 0 0 0 0 0 0 0 0 0 0 -21 -4 0 0 0 0 0 0 0 0 0 0 0 0 0 0 0 0 0 0 0 0 0 0 0 0
-257 -202 0 0 0 0 0 0 0 0 0 0 0 0 0 0 0 0 0 0 0 0 0 0 0 0 0 0 0 0 0 0 0 0 0 -27 -13 -74 -76 -15 0 -69 0
-265 -158 0 0 0 0 0 0 0 0 0 0 0 0 0 0 0 0 0 0 0 0 0 0 0 0 0 0 0 0 0 0 0 0 0 0 0 0 0 0 0 0 0
0 0 0 0 0 0 0 0 0 0 0 0 0 0 0 0 0 0 0 0 0 0 0 0 0 0 0 0 0 0 0 0 0 0 0 0 0 0 0 0 0 0 0
Wind_Speed
11 7 8 8 8 8 8 8 9 9 10 11 11 9 8 8 8 7 7 7 7 6 4 6 6 5 4 4 3 2 3 3 3 1 1 1 2 5 3 4 4 4 3
9 10 10 8 9 10 10 10 10 11 10 11 11 9 9 10 9 9 8 7 7 7 6 6 6 4 5 4 3 5 4 4 3 5 1 2 2 6 4 6 4 4 3
6 8 8 9 11 11 11 11 10 10 10 10 11 11 10 10 9 7 8 7 6 6 7 6 6 6 5 3 3 4 3 3 2 4 3 1 2 3 5 4 5 5 4
6 7 10 12 13 12 11 11 12 12 12 11 11 11 11 11 9 7 7 6 6 6 6 6 6 6 6 6 4 4 4 4 4 5 3 2 3 3 4 4 4 3 4
10 10 11 10 10 12 11 11 11 12 11 11 11 10 10 9 7 8 7 7 6 6 6 5 5 6 6 5 3 5 6 5 4 5 4 2 2 3 4 2 4 5 4
7 7 8 9 10 12 12 12 13 11 11 11 10 10 9 5 11 11 8 6 7 6 6 4 4 6 6 5 3 9 9 10 6 4 3 7 5 3 4 5 5 4 3
5 8 9 11 10 11 12 12 13 11 10 10 8 8 7 7 10 12 11 6 7 6 6 5 4 3 5 4 2 5 7 7 10 6 8 6 6 4 6 7 3 3 2
4 9 10 12 12 13 14 13 11 10 10 8 7 7 7 4 9 12 10 6 5 5 6 6 5 5 5 6 5 4 6 6 5 4 5 5 5 8 8 7 5 6 5
10 7 11 13 13 13 12 11 9 10 8 6 6 8 9 6 7 11 9 6 5 5 5 5 5 5 6 9 6 7 7 4 5 8 10 10 12 12 11 9 6 8 3
6 9 11 13 15 13 12 11 6 9 8 7 7 6 7 8 6 8 8 5 6 4 4 3 2 4 8 10 8 9 8 6 7 6 5 7 8 10 11 6 9 7 3
7 9 11 11 14 14 11 9 8 9 9 8 8 7 6 5 4 6 9 5 6 5 4 3 2 6 8 8 7 6 6 8 8 8 6 5 5 7 4 5 4 8 5
5 14 13 11 10 10 13 9 11 11 11 8 9 6 4 4 3 5 9 8 8 5 5 3 3 7 7 9 7 11 13 9 6 6 5 4 5 4 3 4 5 5 2
15 12 11 11 10 10 12 10 9 9 9 8 6 6 4 3 2 3 8 10 10 4 3 5 8 8 11 9 13 14 9 6 6 5 5 3 3 4 5 4 4 5 4
10 13 11 11 10 8 8 8 8 8 8 7 6 6 5 4 3 2 4 5 9 6 7 5 5 8 8 9 9 5 5 6 6 5 4 4 4 4 4 2 2 2 2
12 11 10 10 10 8 7 4 6 4 8 10 8 7 8 6 5 6 6 5 5 6 8 4 5 5 6 6 5 5 5 5 6 4 5 4 3 3 2 2 2 2 2
12 10 9 8 8 7 7 6 15 10 8 6 10 8 2 8 13 11 9 10 12 12 3 5 5 6 7 6 6 5 4 5 4 5 4 4 4 3 3 2 2 3 3
13 11 9 9 8 8 7 7 6 6 14 13 7 10 10 11 13 11 10 10 10 6 4 5 6 6 6 6 5 5 4 3 5 4 5 5 4 4 4 3 2 3 3
11 13 11 9 8 8 7 7 6 7 7 4 10 6 10 15 12 12 13 10 5 4 4 5 5 5 6 5 5 3 5 4 4 4 4 4 5 5 4 3 3 3 3
10 8 8 7 6 8 7 6 6 6 5 5 4 7 8 10 10 10 5 4 5 5 5 4 4 5 4 5 5 4 5 5 5 5 5 5 4 4 4 4 5 5 4
9 13 11 9 8 7 7 7 7 6 6 6 6 5 5 5 4 4 1 3 4 3 4 4 4 4 5 5 5 5 4 4 4 4 4 5 5 5 4 4 4 5 4
7 8 10 8 8 7 7 7 8 6 6 5 6 4 6 8 7 5 3 3 3 3 4 5 4 4 4 4 5 4 4 4 4 3 3 4 4 4 4 4 4 4 4
8 9 8 8 9 8 7 8 8 8 7 7 7 4 6 5 5 4 4 3 3 3 3 4 4 4 4 4 4 4 4 4 3 3 3 3 4 4 4 4 4 4 4
9 8 8 7 7 9 8 7 9 8 8 7 7 5 3 4 5 4 6 5 5 5 5 5 5 4 4 4 3 2 3 4 4 4 4 4 4 4 4 5 5 4 4
8 10 10 8 9 9 9 8 7 9 10 9 8 5 3 5 7 8 7 6 6 6 7 7 7 7 4 4 3 3 1 1 1 2 4 5 4 4 4 3 3 3 1
7 8 10 10 10 9 9 8 8 9 10 9 9 6 7 8 8 8 7 7 8 9 10 8 7 9 11 11 9 8 6 3 4 4 4 6 7 7 7 6 7 7 7
7 7 8 8 8 9 9 9 9 9 10 9 8 8 8 9 9 9 8 9 9 10 11 9 12 16 14 12 12 10 11 11 9 10 8 8 8 7 7 9 12 8 7
Wind_Direction
183 191 168 173 167 159 169 174 170 161 165 163 163 151 152 158 154 145 142 149 151 157 156 174 185 165 179 180 155 143 159 141 139 235 128 57 129 114 90 86 70 80 91
212 189 191 161 156 167 165 167 161 168 167 160 156 146 158 158 150 150 149 161 158 169 179 176 190 176 191 181 172 184 170 172 142 164 128 84 100 104 101 96 73 71 91
182 164 158 157 169 174 159 162 160 156 156 155 152 155 156 152 156 156 156 160 169 176 177 180 188 173 190 180 180 184 173 163 177 143 122 101 84 108 88 71 73 64 66
181 175 166 171 176 160 160 159 155 159 151 155 157 156 154 152 157 154 154 164 170 182 183 177 179 189 185 188 188 175 150 141 134 133 120 108 127 80 100 115 85 72 71
170 171 172 158 142 146 152 150 149 153 152 155 149 148 144 152 158 158 167 167 170 171 180 180 186 189 188 174 171 161 146 132 134 133 136 126 100 126 135 113 107 105 54
146 141 135 131 141 155 154 150 144 145 145 146 147 147 143 151 155 155 151 158 157 160 170 173 167 168 162 150 174 161 161 148 148 155 173 162 166 112 125 126 137 140 118
131 139 140 143 144 147 139 142 142 144 143 145 134 133 142 143 168 160 155 156 156 158 158 160 168 176 173 173 131 162 142 132 169 184 165 164 153 140 135 137 134 76 82
324 154 149 147 147 138 139 142 129 139 133 137 129 132 131 117 139 142 138 134 131 147 160 168 170 179 183 164 158 144 147 152 159 165 179 139 121 141 152 140 117 102 73
356 186 162 154 143 134 131 126 124 123 123 122 136 132 123 127 126 137 142 126 127 146 153 161 174 177 166 169 149 142 132 106 70 129 131 134 141 132 130 130 138 133 108
294 217 172 154 143 136 131 125 118 125 118 122 103 105 109 129 129 143 137 125 136 137 124 129 82 174 168 165 153 156 145 147 132 109 95 92 130 139 144 152 149 148 130
199 173 157 152 141 132 125 125 124 119 114 112 111 109 112 129 130 155 151 141 152 145 157 168 156 144 160 169 150 154 144 134 122 120 123 126 127 142 135 132 141 161 157
111 159 146 142 127 128 126 123 127 125 118 115 116 103 105 111 100 169 170 140 148 145 180 172 135 150 158 153 126 117 116 112 115 118 122 129 145 150 132 133 132 130 149
238 140 129 119 118 128 126 126 118 121 129 133 135 134 132 124 103 139 163 151 142 127 154 122 124 128 119 94 121 127 119 119 119 123 127 112 118 116 106 96 110 125 80
153 118 117 116 113 116 125 123 127 133 140 141 143 151 146 149 148 140 128 111 103 94 111 98 108 109 98 116 124 128 124 130 133 123 109 98 104 121 126 122 126 131 103
127 120 113 119 120 100 69 80 140 117 157 159 167 159 161 167 180 155 141 143 137 134 118 115 117 104 121 134 125 118 113 124 130 126 133 127 123 126 118 135 116 124 140
129 132 127 126 125 126 124 96 45 53 71 104 141 148 85 129 138 140 148 124 132 146 107 127 122 132 142 142 136 133 125 127 132 138 132 134 138 140 129 114 122 163 163
140 135 128 126 134 141 138 143 131 49 64 49 99 128 129 143 134 136 134 129 144 130 124 131 135 139 138 135 139 149 137 132 132 139 145 147 145 136 143 153 149 149 174
144 131 135 142 141 145 147 144 137 155 153 117 38 67 114 126 128 132 135 120 116 86 127 135 136 139 142 143 139 125 120 132 143 146 149 153 157 153 161 167 179 170 172
129 135 129 124 121 119 116 115 132 132 126 122 123 66 68 90 118 137 149 132 136 136 138 132 135 139 130 128 130 134 145 156 159 160 167 165 164 159 176 182 186 198 188
134 127 124 125 125 121 118 123 122 121 129 141 135 130 136 117 135 163 123 111 112 124 130 139 141 139 145 142 146 144 141 152 167 168 175 173 173 178 181 187 188 203 214
119 126 124 125 128 131 130 125 129 126 135 125 123 119 132 137 154 154 128 124 140 143 143 141 136 138 139 131 140 154 163 170 176 177 176 170 164 176 187 196 198 206 211
138 138 139 137 134 136 128 123 131 135 124 114 111 85 74 110 124 120 117 99 78 124 133 129 131 138 140 151 157 157 163 175 194 195 193 199 191 197 189 196 208 211 218
140 127 124 125 121 116 112 121 128 124 124 121 125 123 112 129 123 101 87 69 56 49 36 61 84 75 58 64 53 91 182 192 196 184 197 203 208 209 196 210 200 205 205
128 145 130 128 130 127 128 136 129 129 132 131 131 136 130 91 86 87 85 72 66 60 56 54 49 50 51 51 37 35 19 7 2 295 268 227 218 208 205 185 184 216 110
119 125 131 135 135 133 130 127 126 127 128 131 125 98 91 87 87 84 79 75 70 68 62 61 51 54 52 52 46 41 19 119 128 101 72 93 89 69 83 86 84 73 62
74 91 121 121 128 136 128 119 117 118 113 102 95 85 88 86 81 82 81 80 77 71 73 67 64 61 58 52 46 44 46 39 51 61 66 69 74 71 73 74 77 65 68